Torna al catalogo

COSMOS 1508

AttivoMilitarePO
NORAD 14483·PAYLOAD·🇷🇺 Russia

Lanciato Nov 11, 1983 da Plesetsk Cosmodrome

Loading…

Prossimi Passaggi (prossime 24 ore)

TLE

AggiornatoSource: Space-Track

Epoca: Sep 14, 2026, 14:08 UTC

1 14483U 83111A   26257.58907511  .00001306  00000-0  79805-4 0  9995
2 14483  82.8858 178.5461 0670880 194.6685 163.4159 14.08235635133914

Traccia COSMOS 1508 in tempo reale con AllMySat

Download on the App Store